Wind_Speed
16 15 16 15 16 16 21 22 25 26 24 23 24 24 23 23 23 24 21 22 22 22 25 26 23 20 18 18 19 20 20 22 21 22 24 25 26 26 27 27 26 25 25 24 24 24 24 24 24
13 12 14 15 18 14 19 19 23 24 22 22 23 23 24 23 23 23 22 22 23 25 26 27 29 30 28 22 20 21 21 21 21 23 25 26 27 28 29 30 29 29 28 27 27 26 26 26 26
13 12 13 14 16 15 19 23 23 21 18 18 20 22 23 23 24 24 23 24 25 27 28 30 30 31 32 32 31 29 26 25 25 25 26 27 28 30 31 32 32 32 31 31 30 29 29 28 27
12 11 11 8 9 6 15 18 18 18 16 17 20 23 22 23 24 24 24 25 25 28 29 30 32 33 32 33 34 32 31 29 29 28 29 30 31 32 32 34 35 34 34 34 33 32 31 30 29
11 9 8 4 3 2 7 15 17 18 18 18 17 16 17 18 17 18 18 19 22 25 28 30 31 32 34 33 33 33 32 32 31 31 31 32 33 33 34 36 35 37 37 36 36 35 34 33 32
10 9 6 3 1 2 2 11 14 11 11 11 13 12 13 12 11 12 13 15 18 22 22 25 28 30 30 31 33 34 34 34 34 33 34 34 35 35 36 37 37 38 38 39 40 39 37 36 35
11 10 6 4 2 2 4 6 7 7 10 10 9 9 12 9 8 7 7 9 9 11 17 19 21 21 23 27 29 32 34 35 36 37 38 38 37 37 39 39 40 40 39 40 43 42 41 40 38
13 11 7 4 3 2 3 6 6 7 6 9 10 9 9 9 8 8 9 11 10 10 10 12 16 20 22 25 27 29 32 34 36 38 40 43 43 43 42 42 42 42 42 42 44 44 45 44 43
14 12 8 7 6 5 4 5 6 7 8 9 10 10 10 10 11 11 12 12 13 13 14 15 17 19 22 24 26 29 31 33 37 40 42 43 43 47 49 47 46 45 45 45 45 46 46 47 48
15 13 10 9 9 8 7 7 8 9 11 12 12 14 14 14 14 14 14 14 14 15 17 20 23 26 28 30 31 33 35 38 40 41 42 44 46 47 45 49 48 49 46 47 47 48 50 51 50
17 15 13 13 12 12 11 11 11 13 14 12 15 15 14 14 14 14 16 16 18 21 23 26 28 31 33 36 38 41 44 46 46 47 48 49 50 54 52 50 44 41 54 51 51 50 51 51 52
18 16 15 16 15 14 14 15 15 16 17 16 16 15 15 15 16 17 18 20 24 26 29 32 34 36 39 42 45 48 49 49 52 57 58 57 56 56 57 55 53 50 45 49 52 55 56 53 55
20 18 17 17 16 17 18 19 19 19 17 17 17 18 18 18 18 19 22 24 27 30 34 39 43 46 48 53 56 57 58 60 62 58 62 66 66 64 62 61 57 59 52 51 45 51 53 55 58
21 19 18 17 17 18 20 20 19 20 19 19 19 20 21 21 23 24 26 28 33 38 42 46 50 53 55 59 63 66 66 66 67 64 64 67 71 72 71 68 64 60 61 58 61 50 58 52 60
22 21 20 19 20 21 22 21 20 21 21 21 22 22 23 25 27 29 30 34 38 42 48 51 53 62 65 61 53 49 52 54 54 54 55 56 61 73 76 76 74 68 66 64 62 66 63 50 53
24 23 22 22 23 23 24 21 22 23 22 23 24 25 26 27 29 31 34 37 41 47 52 55 63 51 41 35 34 38 42 45 49 52 53 53 56 59 66 73 79 78 73 70 69 67 67 68 54
26 25 25 25 25 26 26 23 26 26 25 26 27 27 27 28 30 31 34 39 44 49 54 54 39 29 30 33 34 37 41 44 48 50 50 54 56 58 60 64 66 69 74 79 75 72 71 56 63
27 27 26 27 27 28 27 24 29 27 25 27 29 27 27 28 29 32 36 41 45 50 47 33 30 31 32 34 34 35 40 44 45 50 54 55 54 57 63 65 66 69 69 69 75 79 77 78 72
29 28 27 28 28 28 28 24 31 28 24 27 30 28 26 27 29 33 38 42 46 44 39 37 34 39 38 37 37 39 41 48 51 49 48 53 60 62 65 68 70 70 71 71 72 72 78 82 78
29 28 28 29 29 29 28 25 29 28 27 26 28 27 26 27 30 34 39 43 44 41 40 41 44 46 43 42 43 43 48 52 54 54 53 51 55 58 58 60 65 73 74 74 74 74 73 75 80
31 31 31 31 30 29 28 26 26 27 28 27 27 25 25 28 31 34 38 40 40 40 39 39 40 42 43 44 47 51 55 56 56 57 57 55 56 58 57 59 62 65 70 76 79 77 74 74 77
32 31 31 30 30 29 27 26 23 25 26 27 26 25 26 28 31 33 35 38 38 38 38 37 39 42 46 50 55 57 59 60 60 59 59 58 58 59 60 58 58 62 67 70 71 79 82 76 75
28 29 29 29 29 29 25 27 20 24 26 27 26 24 25 26 28 30 32 34 35 36 38 40 45 49 52 53 56 58 57 52 53 55 56 57 59 60 59 59 61 63 66 68 71 74 76 80 83
29 29 29 30 30 31 25 27 21 24 26 25 25 23 24 26 26 27 28 31 31 34 38 44 47 50 51 55 58 56 54 54 54 54 52 55 57 55 55 58 62 66 69 71 74 77 80 81 82
30 30 31 32 30 29 26 27 21 23 26 24 23 23 24 24 25 26 31 34 36 39 43 46 48 51 55 56 56 54 53 52 49 49 52 49 47 52 58 62 66 72 78 82 83 83 82 82 86
32 31 32 32 30 28 26 25 22 24 25 24 22 22 23 24 26 28 30 34 36 40 45 48 50 55 55 54 52 51 50 48 45 48 48 45 50 50 58 63 68 71 73 76 81 86 87 84 84
32 31 29 32 32 30 27 24 24 24 25 25 22 20 22 22 23 26 28 32 36 42 48 50 54 54 52 52 47 47 47 45 44 48 43 50 50 59 63 63 61 62 63 66 70 72 80 81 82
34 30 32 31 33 31 29 25 21 25 28 26 23 22 22 21 23 27 30 34 39 45 49 53 54 52 50 49 45 45 44 43 44 46 44 53 52 51 56 53 54 59 63 67 70 69 69 74 72
35 34 33 33 35 32 30 26 20 24 28 28 23 23 23 22 23 28 32 36 41 47 50 53 54 54 51 47 43 43 43 41 43 41 42 48 56 55 52 47 49 53 54 57 59 61 61 65 66
38 37 36 36 34 33 32 25 20 24 29 27 25 24 25 24 26 28 32 37 43 48 51 53 54 53 52 45 42 41 41 38 40 39 45 51 48 55 40 40 43 45 43 44 40 41 48 55 59
Wind_Direction
268 277 285 291 291 269 239 233 233 233 229 231 235 239 239 243 243 245 247 248 248 245 242 240 243 250 247 243 241 235 240 244 243 241 245 244 235 237 239 241 240 241 243 242 244 245 248 248 249
264 281 288 292 293 279 230 224 226 229 225 230 235 238 240 243 245 246 248 245 245 247 248 247 246 244 245 237 237 240 240 246 251 248 245 245 247 242 238 239 242 239 239 240 241 244 247 249 250
263 279 289 302 299 271 222 217 221 221 218 228 236 239 241 240 243 243 244 243 246 246 245 248 249 248 246 245 243 246 246 247 248 251 250 249 247 246 246 244 240 240 239 238 239 241 243 245 249
256 271 287 306 319 263 223 222 222 218 219 224 231 234 240 245 248 252 252 253 248 250 251 249 249 250 252 251 251 254 254 251 248 247 246 247 246 247 246 246 247 244 241 240 236 237 241 244 245
246 262 274 277 339 11 212 210 209 212 217 225 232 230 231 236 236 239 238 244 250 252 252 253 253 252 252 254 254 255 252 250 249 246 246 247 246 245 245 245 242 243 245 244 241 238 238 239 241
230 244 245 227 308 12 240 217 220 214 186 183 198 210 198 191 207 229 244 257 260 259 258 259 256 256 258 258 258 259 260 259 255 251 249 247 247 247 246 245 244 242 241 243 244 242 239 238 239
220 223 212 203 165 103 88 130 155 190 202 206 208 202 192 192 196 219 243 254 282 283 262 269 266 261 262 266 265 266 267 264 264 261 257 257 250 246 247 246 245 243 242 241 243 244 243 242 240
215 213 203 196 186 157 127 138 150 154 160 180 195 206 209 211 220 238 254 267 275 280 282 274 273 277 275 273 272 269 269 270 268 267 264 261 260 259 246 247 248 247 244 242 241 242 243 243 243
211 208 208 211 210 213 208 191 196 190 194 198 205 218 230 237 246 253 263 271 279 283 283 282 283 281 279 281 280 279 277 275 272 266 265 267 265 257 260 252 244 246 246 245 243 243 241 240 243
213 217 219 227 229 228 230 230 226 226 222 219 227 231 234 243 253 261 266 269 276 284 293 298 295 290 286 284 281 278 276 276 275 271 268 267 263 257 257 255 252 247 243 245 245 245 243 240 239
220 226 229 234 237 235 237 239 242 245 246 247 248 250 254 254 258 264 271 280 288 288 290 289 286 287 288 287 287 286 284 281 277 274 271 268 264 265 262 261 257 246 250 244 244 243 243 243 242
224 232 233 240 243 247 247 249 251 256 259 262 261 263 258 252 255 263 272 280 287 285 288 289 287 285 284 286 286 286 283 284 282 278 272 268 266 265 264 259 259 256 246 242 244 244 245 246 247
227 231 236 242 248 252 255 255 255 259 257 258 261 261 259 259 263 267 275 282 286 289 289 290 289 288 287 286 287 286 282 282 283 279 271 268 265 263 262 262 257 258 259 257 251 244 246 248 248
229 234 239 246 253 258 260 260 257 259 258 255 259 263 265 269 273 274 278 287 291 292 293 294 293 292 292 288 285 284 283 282 280 278 273 266 261 260 260 261 260 257 255 256 258 251 244 240 248
235 239 243 251 258 261 262 262 256 257 258 261 260 260 264 269 273 280 287 291 293 296 298 297 298 296 290 289 283 276 272 271 272 271 270 269 264 259 258 259 259 257 255 255 251 261 248 242 241
241 244 249 257 262 264 264 258 259 257 257 260 261 265 268 273 278 284 289 292 297 299 298 298 298 295 290 288 286 281 279 278 277 276 274 272 269 266 263 261 261 261 257 254 254 253 260 260 258
246 248 254 260 265 267 265 258 255 258 259 264 265 266 269 275 281 287 292 296 299 301 302 302 295 287 283 286 286 285 286 286 284 281 279 275 272 270 266 263 262 262 261 258 254 252 247 247 249
248 251 257 262 265 267 263 257 259 256 259 264 265 268 274 282 287 291 296 298 303 307 306 295 287 289 288 285 289 294 301 298 293 287 279 275 275 276 272 266 262 260 260 260 259 255 252 251 251
248 252 256 262 265 265 264 258 265 261 257 261 268 274 281 286 290 293 297 303 310 308 298 287 287 292 291 288 291 295 298 299 299 297 292 280 275 279 279 269 261 260 256 255 258 257 254 252 253
249 253 259 263 266 267 264 258 263 265 267 264 267 275 282 288 291 296 302 312 313 303 295 292 293 297 292 290 290 291 294 299 298 295 293 291 284 283 284 273 265 258 257 257 253 252 254 253 250
252 257 261 264 265 265 263 259 263 265 267 270 275 279 283 285 293 303 313 318 312 304 301 299 299 298 294 295 295 294 297 296 293 289 290 289 287 285 284 277 270 266 262 257 256 253 248 249 251
255 260 261 262 261 262 262 261 261 266 268 271 274 277 280 289 299 313 322 320 313 306 304 305 302 300 299 299 299 298 296 293 291 288 287 288 287 286 283 276 268 265 264 264 260 255 253 247 245
254 258 261 261 260 261 259 264 259 265 267 271 271 276 284 293 306 320 323 321 316 310 308 307 304 302 301 300 297 296 297 296 294 289 285 285 286 286 282 277 271 267 263 260 261 260 256 251 244
255 257 258 258 258 258 259 263 259 263 266 268 272 281 289 301 312 322 317 318 315 311 307 303 302 301 301 300 300 298 296 296 296 295 292 290 288 286 284 281 278 274 271 268 264 260 258 255 251
254 255 256 256 256 261 260 262 266 260 265 269 274 280 291 302 312 320 320 317 318 315 311 309 308 307 306 305 302 301 300 299 298 296 297 295 292 291 291 289 285 280 276 271 268 264 261 258 253
249 250 253 259 260 260 258 261 261 264 266 269 275 283 294 301 306 316 323 320 321 317 312 313 312 310 309 307 307 305 304 303 300 299 299 297 296 294 296 292 288 286 280 275 270 264 259 255 253
244 246 251 257 259 260 257 257 265 271 271 273 276 285 293 304 308 310 318 315 316 314 314 315 314 312 313 311 310 310 308 303 302 306 298 303 296 299 300 299 295 288 282 276 269 264 256 251 249
242 242 247 252 259 259 259 259 264 265 267 268 273 281 291 302 306 311 317 313 315 314 315 314 313 315 315 314 313 314 309 304 307 308 309 307 308 309 307 298 294 289 284 279 273 266 257 248 244
240 243 245 250 253 258 262 261 266 258 267 270 269 276 284 294 302 313 317 316 315 314 315 314 314 316 316 316 316 316 314 308 313 316 315 313 313 312 309 300 298 295 294 288 276 266 257 247 242
238 240 244 248 253 258 262 263 273 265 264 267 273 272 283 292 302 310 316 317 317 316 315 314 313 312 314 316 318 318 318 314 320 315 313 318 321 319 310 310 309 308 305 304 284 268 255 245 236
Height
5788 5787 5786 5785 5786 5782 5781 5784 5784 5785 5789 5791 5792 5794 5796 5797 5799 5802 5802 5803 5804 5805 5806 5807 5809 5810 5812 5813 5813 5813 5813 5814 5813 5815 5817 5818 5819 5821 5822 5822 5824 5825 5826 5827 5828 5829 5830 5830 5831
5785 5784 5783 5781 5780 5777 5777 5778 5780 5781 5784 5786 5788 5790 5792 5793 5794 5796 5797 5798 5799 5800 5801 5802 5804 5805 5807 5808 5809 5811 5810 5810 5811 5811 5812 5813 5815 5816 5817 5818 5819 5819 5821 5822 5822 5824 5825 5827 5827
5783 5782 5781 5777 5774 5772 5773 5775 5775 5778 5780 5783 5786 5787 5787 5789 5789 5790 5792 5793 5794 5795 5795 5796 5797 5799 5800 5801 5803 5805 5807 5807 5807 5807 5808 5809 5809 5810 5811 5812 5813 5815 5815 5816 5817 5818 5819 5820 5822
5780 5780 5778 5775 5771 5769 5770 5771 5773 5776 5778 5779 5781 5782 5784 5784 5785 5786 5788 5789 5790 5790 5791 5791 5791 5792 5794 5796 5797 5798 5799 5801 5802 5802 5802 5802 5802 5804 5805 5806 5807 5808 5809 5810 5810 5811 5812 5813 5815
5778 5777 5776 5773 5771 5769 5768 5769 5770 5772 5774 5776 5777 5778 5779 5779 5780 5781 5783 5784 5784 5785 5786 5786 5786 5787 5788 5789 5791 5792 5793 5793 5794 5795 5796 5796 5796 5796 5797 5798 5799 5801 5801 5802 5803 5804 5805 5806 5807
5775 5775 5774 5772 5771 5769 5768 5768 5769 5770 5772 5773 5775 5775 5776 5777 5778 5779 5780 5781 5781 5780 5780 5781 5781 5782 5783 5783 5785 5787 5788 5788 5788 5788 5788 5790 5789 5789 5790 5790 5791 5793 5794 5795 5795 5797 5798 5799 5801
5772 5772 5772 5772 5771 5770 5770 5769 5769 5771 5772 5773 5774 5774 5775 5775 5776 5776 5777 5777 5777 5776 5776 5776 5777 5777 5777 5778 5778 5779 5779 5780 5781 5782 5782 5781 5781 5782 5782 5783 5783 5785 5786 5786 5788 5788 5790 5792 5793
5770 5770 5770 5770 5770 5770 5770 5770 5770 5770 5771 5772 5774 5774 5774 5774 5773 5774 5774 5774 5774 5773 5773 5773 5773 5773 5773 5773 5773 5773 5773 5774 5775 5775 5775 5775 5774 5774 5775 5775 5775 5777 5777 5778 5779 5780 5781 5782 5785
5767 5769 5769 5769 5769 5769 5769 5770 5770 5770 5770 5771 5772 5771 5771 5771 5770 5771 5771 5771 5771 5771 5771 5771 5770 5770 5770 5770 5769 5768 5767 5767 5767 5767 5767 5767 5766 5765 5765 5765 5766 5767 5769 5768 5770 5771 5771 5773 5775
5765 5766 5767 5767 5767 5766 5767 5767 5767 5768 5768 5769 5769 5769 5769 5768 5769 5769 5769 5769 5769 5768 5767 5767 5766 5765 5764 5763 5763 5761 5760 5758 5758 5757 5757 5757 5756 5754 5752 5755 5755 5757 5758 5760 5760 5761 5762 5762 5764
5762 5763 5764 5764 5764 5764 5765 5764 5764 5764 5765 5765 5765 5766 5766 5766 5766 5766 5765 5765 5765 5764 5764 5763 5761 5760 5758 5757 5755 5754 5752 5750 5749 5748 5747 5746 5745 5742 5742 5743 5743 5745 5748 5749 5750 5751 5751 5752 5754
5758 5759 5760 5761 5761 5761 5762 5762 5762 5762 5762 5762 5762 5762 5763 5763 5763 5762 5762 5761 5760 5759 5758 5756 5755 5754 5752 5750 5747 5745 5742 5740 5738 5737 5736 5735 5734 5733 5732 5734 5734 5734 5736 5738 5738 5739 5741 5742 5743
5753 5754 5756 5757 5757 5758 5758 5759 5759 5758 5759 5758 5758 5758 5758 5758 5758 5757 5756 5756 5754 5753 5751 5749 5747 5745 5742 5739 5736 5733 5730 5727 5724 5723 5722 5721 5720 5720 5719 5719 5722 5721 5724 5724 5726 5728 5729 5730 5733
5749 5750 5751 5752 5753 5754 5754 5754 5755 5754 5754 5754 5754 5753 5752 5752 5752 5751 5751 5749 5748 5746 5743 5741 5737 5733 5729 5726 5722 5719 5715 5712 5708 5706 5705 5705 5704 5704 5704 5705 5707 5708 5711 5712 5712 5715 5717 5718 5721
5744 5746 5747 5748 5748 5749 5748 5749 5750 5749 5749 5748 5748 5748 5747 5747 5746 5744 5743 5742 5739 5736 5733 5729 5724 5720 5715 5711 5706 5702 5698 5695 5693 5691 5690 5688 5687 5687 5688 5688 5691 5695 5695 5698 5701 5701 5701 5704 5708
5740 5742 5742 5743 5743 5744 5744 5745 5744 5743 5743 5743 5742 5743 5742 5741 5740 5738 5736 5734 5731 5727 5722 5717 5711 5704 5699 5696 5694 5692 5690 5687 5684 5680 5677 5675 5674 5672 5671 5673 5673 5675 5680 5683 5686 5689 5690 5690 5695
5735 5736 5737 5737 5737 5737 5738 5739 5738 5738 5738 5737 5737 5736 5736 5735 5733 5731 5729 5725 5722 5716 5712 5705 5699 5695 5692 5689 5686 5684 5681 5677 5673 5669 5664 5662 5659 5658 5657 5657 5658 5657 5658 5664 5670 5674 5676 5676 5682
5729 5730 5731 5730 5732 5731 5731 5733 5730 5731 5732 5730 5730 5730 5729 5727 5725 5723 5720 5717 5712 5706 5700 5695 5691 5688 5684 5681 5678 5675 5671 5666 5661 5656 5651 5649 5646 5642 5641 5640 5641 5641 5644 5645 5648 5655 5658 5661 5666
5722 5724 5724 5724 5725 5725 5724 5726 5722 5724 5726 5724 5723 5722 5721 5719 5718 5716 5712 5708 5702 5697 5692 5688 5684 5680 5675 5672 5669 5665 5661 5656 5650 5645 5639 5634 5631 5628 5623 5620 5621 5622 5624 5629 5630 5632 5637 5646 5649
5716 5717 5718 5718 5718 5718 5718 5720 5717 5718 5718 5718 5717 5716 5714 5712 5710 5707 5703 5697 5692 5688 5683 5679 5675 5670 5666 5663 5659 5654 5650 5644 5637 5631 5626 5621 5616 5611 5605 5602 5600 5603 5604 5607 5612 5615 5617 5622 5627
5709 5710 5710 5711 5711 5711 5712 5713 5713 5712 5711 5711 5710 5708 5707 5705 5702 5699 5693 5688 5683 5678 5674 5670 5665 5660 5655 5651 5646 5641 5635 5630 5623 5617 5611 5606 5600 5595 5591 5586 5583 5583 5583 5587 5589 5593 5600 5605 5603
5701 5703 5703 5703 5703 5704 5705 5705 5707 5706 5705 5705 5704 5702 5700 5697 5694 5689 5684 5679 5674 5670 5666 5661 5655 5650 5644 5638 5632 5626 5620 5613 5606 5600 5595 5589 5583 5578 5574 5571 5568 5566 5564 5565 5566 5569 5576 5581 5589
5694 5695 5695 5696 5696 5697 5699 5696 5702 5700 5699 5698 5697 5695 5693 5690 5686 5682 5677 5672 5667 5662 5657 5652 5646 5640 5633 5625 5617 5610 5603 5596 5590 5582 5578 5572 5567 5561 5556 5553 5550 5549 5547 5546 5545 5546 5550 5555 5564
5686 5687 5688 5689 5689 5689 5692 5690 5694 5692 5692 5691 5689 5687 5684 5681 5677 5674 5670 5666 5661 5655 5650 5644 5636 5628 5621 5612 5602 5594 5587 5581 5574 5567 5561 5555 5549 5544 5539 5535 5532 5529 5526 5524 5522 5522 5525 5530 5536
5679 5680 5680 5681 5682 5683 5684 5683 5685 5685 5684 5683 5682 5680 5677 5673 5670 5666 5662 5658 5652 5646 5640 5633 5625 5616 5607 5597 5588 5579 5572 5566 5559 5553 5546 5539 5534 5528 5522 5515 5511 5507 5502 5498 5496 5496 5499 5503 5509
5670 5672 5673 5672 5674 5676 5677 5676 5678 5676 5676 5675 5674 5672 5669 5666 5662 5658 5654 5649 5644 5637 5630 5622 5614 5604 5594 5584 5574 5566 5558 5552 5546 5539 5532 5526 5519 5511 5504 5497 5490 5483 5477 5471 5465 5466 5470 5474 5479
5663 5664 5667 5665 5666 5667 5669 5671 5670 5668 5667 5667 5667 5665 5662 5659 5655 5651 5647 5642 5636 5629 5621 5612 5603 5592 5582 5572 5564 5555 5547 5539 5533 5526 5519 5512 5504 5497 5488 5478 5468 5459 5450 5443 5438 5436 5438 5444 5451
5653 5657 5657 5658 5658 5659 5660 5663 5663 5661 5659 5659 5658 5656 5654 5651 5648 5644 5639 5634 5627 5619 5611 5602 5591 5581 5572 5562 5553 5545 5537 5528 5521 5513 5506 5498 5490 5480 5469 5456 5446 5438 5428 5419 5411 5409 5411 5416 5426
5645 5646 5649 5651 5649 5651 5652 5655 5656 5653 5651 5651 5651 5649 5647 5643 5640 5635 5631 5625 5618 5609 5600 5590 5580 5570 5561 5552 5543 5535 5527 5518 5510 5502 5495 5486 5476 5463 5451 5440 5429 5419 5407 5394 5384 5382 5384 5390 5400
5634 5637 5640 5641 5643 5643 5644 5648 5647 5645 5644 5644 5643 5642 5639 5636 5632 5628 5622 5616 5609 5600 5590 5580 5570 5560 5551 5542 5534 5526 5517 5508 5501 5494 5485 5475 5463 5449 5437 5426 5416 5403 5392 5378 5366 5362 5363 5368 5378